[[{"header":{"parameterUnit":"m.s-1","parameterCategory":1,"la1":30.2991,"la2":30.254,"lo1":-89.0895,"lo2":-89.0444,"dy":0.0017,"dx":0.0017,"nx":28,"ny":28,"refTime":"2023-10-19T09:00:00:Z","depth":0,"parameterNumber":2,"parameterNumberName":"U-component_of_WINDS"},"data":[0,0,0,0,0,0,0,0,0,0,0,0,0,0,0,0,0,0,0,0,0,0,0,0,0,0,0,0,0,0,0,0,0,0,0,0,0,0,0,0,0,0,0,0,0,0,0,0,0,0,0,0,0,0,0,0,0,0,0.1503,0.1502,0,0.1383,0.1381,0.138,0.1412,0.1414,0.1417,0.1419,0.1295,0.1289,0.1284,0,0,0,0,0,0,0,0,0,0,0,0,0,0.176,0.1755,0.1503,0.1502,0.15,0.1383,0.1381,0.138,0.1411,0.1414,0.1417,0.142,0.1297,0.129,0.1283,0,0,0,0,0,0,0,0,0,0,0,0,0,0.1645,0.1754,0.1504,0.1502,0.1501,0.1383,0.1381,0.1379,0.1411,0.1414,0.1418,0.1421,0.1299,0.1291,0.1282,0.1159,0,0,0.1257,0.1253,0,0,0,0,0,0,0,0,0.1652,0.1636,0.1504,0.1502,0.15,0.1416,0.1427,0.1305,0.141,0.1445,0.1419,0.1423,0.1332,0.1321,0.1291,0.1153,0.1148,0.1256,0.1251,0.1248,0.1245,0,0,0,0,0,0,0,0.166,0.1641,0.1456,0.1502,0.15,0.1507,0.1495,0.1404,0.137,0.1442,0.1444,0.143,0.1332,0.1299,0.1288,0.1146,0.1256,0.1249,0.1244,0.1241,0.0903,0.0899,0,0,0,0,0,0,0.1669,0.1647,0.1459,0.1452,0.1586,0.15,0.1486,0.1439,0.1371,0.1364,0.1427,0.1431,0.1311,0.1298,0.1284,0.1136,0.1248,0.124,0.1235,0.0907,0.0902,0.0898,0,0,0,0,0,0,0.1674,0.1652,0.1464,0.155,0.1527,0.1491,0.1439,0.1435,0.1402,0.1359,0.1353,0.1399,0.1313,0.1296,0.119,0.1133,0.1236,0.1229,0.0911,0.0905,0.09,0.084,0,0,0,0,0,0,0.1682,0.1654,0.1607,0.1549,0.1522,0.1373,0.1435,0.143,0.1388,0.1393,0.1332,0.1325,0.1315,0.1203,0.1182,0.1123,0.1222,0.0917,0.0909,0.0902,0.0847,0.0832,0.082,0,0,0,0,0,0.1691,0.1594,0.1604,0.1581,0.1462,0.1369,0.1354,0.1345,0.1383,0.1335,0.1308,0.1327,0.1142,0.1191,0.1169,0.1106,0.092,0.0911,0.0902,0.0853,0.0835,0.0821,0,0,0,0,0,0,0.1645,0.1586,0.1597,0.1478,0.1429,0.1375,0.1315,0.1326,0.1264,0.1272,0.1263,0.1248,0.1141,0.1113,0.1169,0.0984,0.1037,0.1023,0.1007,0.099,0.0977,0.0987,0.1215,0,0,0,0,0,0.1621,0.1551,0.1503,0.1403,0.1377,0.135,0.1309,0.1306,0.1254,0.1233,0.1198,0.1147,0.1077,0.1032,0.0965,0.0842,0.083,0.0788,0.0775,0.0764,0.0753,0.0687,0.0669,0.0868,0.0868,0.0868,0,0,0.1571,0.153,0.1486,0.1393,0.1354,0.1281,0.1332,0.1253,0.1199,0.1221,0.1121,0.1092,0.1035,0.092,0.0868,0.0894,0.0695,0.0753,0.0744,0.0739,0.0676,0.0657,0.0641,0.0862,0.0863,0.0864,0,0,0.1444,0.1405,0.1318,0.1278,0.1219,0.1202,0.1181,0.1125,0.1108,0.1007,0.1022,0.0958,0.0837,0.0796,0.0759,0.0616,0.0632,0.0595,0.0526,0.0462,0.0447,0.0433,0.0384,0.0366,0.0583,0.0583,0.0583,0,0.1389,0.128,0.1272,0.1192,0.1151,0.1168,0.1081,0.1042,0.0964,0.0935,0.0964,0.0815,0.0777,0.0654,0.062,0.0588,0.0565,0.0603,0.045,0.0436,0.0422,0.0376,0.0357,0.0579,0.0579,0.058,0.058,0,0.1217,0.1142,0.1079,0.1004,0.0956,0.0872,0.0851,0.0803,0.0804,0.0784,0.0681,0.0636,0.0561,0.0531,0.0531,0.0409,0.0427,0.0452,0.0505,0.04,0.0356,0.0337,0.0573,0.0575,0.0576,0.0577,0,0,0.1058,0.098,0.0957,0.0925,0.0861,0.0802,0.0719,0.0647,0.0607,0.0552,0.0483,0.0381,0.0405,0.0363,0.0359,0.0302,0.0195,0.0336,0.0334,0.0313,0.0059,0.0041,0.002,0.0204,0.02,0.0197,0.0064,0,0.0926,0.0782,0.0772,0.0642,0.0573,0.0588,0.0516,0.0469,0.0447,0.0386,0.0362,0.0291,0.0327,0.0302,0.0247,0.0219,0.0144,0.0228,0.0141,0.0138,0.0157,-0.0003,-0.0022,-0.0145,0.0047,0.0044,0.0042,0,0.0754,0.0695,0.0558,0.0505,0.0476,0.0412,0.0345,0.0286,0.0233,0.0221,0.0175,0.0178,0.0094,0.0148,0.0032,0.009,0.0053,0.0034,0.0029,0.0023,0.0085,-0.0012,-0.0185,-0.0203,0.0014,0.0016,0.0018,0,0.0654,0.0541,0.0445,0.0415,0.0351,0.0306,0.0276,0.0227,0.0185,0.0126,0.0099,0.003,-0.0006,-0.0059,-0.0074,-0.0033,-0.0189,-0.0136,-0.02,-0.02,-0.0232,-0.0229,-0.0411,-0.026,-0.0259,-0.0259,-0.0258,0,0.051,0.0426,0.0399,0.034,0.0247,0.0236,0.0144,0.0117,0.0074,0.001,0.0018,-0.0042,-0.006,-0.0123,-0.0135,-0.0228,-0.0246,-0.0257,-0.0259,-0.0256,-0.0255,-0.0279,-0.027,-0.0264,-0.0263,-0.0262,-0.0261,0,0.0384,0.0362,0.0259,0.0206,0.0191,0.0125,0.008,0.0023,0.0003,-0.0078,-0.0097,-0.0129,-0.0203,-0.0224,-0.0313,-0.0321,-0.043,-0.0425,-0.0412,-0.0411,-0.0473,-0.0466,-0.0675,-0.0702,-0.0535,-0.0537,-0.0538,0,0.0294,0.023,0.0171,0.0129,0.0099,0.0031,-0.0012,-0.0025,-0.007,-0.0135,-0.0184,-0.0256,-0.0315,-0.0434,-0.0465,-0.0533,-0.0528,-0.0597,-0.0538,-0.0533,-0.0526,-0.0521,-0.0527,-0.0607,-0.0609,-0.061,-0.0611,0,0.0137,0.013,0.0069,0.0003,-0.0048,-0.0101,-0.0151,-0.0186,-0.0206,-0.0257,-0.0332,-0.0378,-0.0468,-0.054,-0.0608,-0.0638,-0.0628,-0.063,-0.0648,-0.0645,-0.0633,-0.0638,-0.0439,-0.0625,-0.0623,-0.0622,-0.0622,-0.0621,0.0028,-0.0027,-0.0077,-0.0146,-0.0185,-0.0232,-0.0287,-0.0314,-0.0376,-0.045,-0.0455,-0.0535,-0.0586,-0.0677,-0.0711,-0.0774,-0.0753,-0.078,-0.0786,-0.0792,-0.0796,-0.0625,-0.0787,-0.0787,-0.0786,-0.0786,-0.0786,0,-0.0126,-0.0157,-0.022,-0.029,-0.0344,-0.033,-0.0385,-0.0431,-0.0502,-0.055,-0.0607,-0.0693,-0.0762,-0.0799,-0.0868,-0.0912,-0.0909,-0.0929,-0.0925,-0.0931,-0.0812,-0.0788,-0.093,-0.093,-0.093,-0.093,-0.093,-0.093,-0.0212,-0.0304,-0.0317,-0.0428,-0.0459,-0.0537,-0.057,-0.0613,-0.0651,-0.0746,-0.0803,-0.0827,-0.087,-0.0942,-0.1005,-0.1014,-0.1039,-0.1062,-0.1068,-0.0955,-0.094,-0.0926,-0.0904,-0.1068,-0.1068,-0.1182,-0.1183,-0.1184]},{"header":{"parameterUnit":"m.s-1","parameterCategory":1,"la1":30.2991,"la2":30.254,"lo1":-89.0895,"lo2":-89.0444,"dy":0.0017,"dx":0.0017,"nx":28,"ny":28,"refTime":"2023-10-19T09:00:00:Z","depth":0,"parameterNumber":3,"parameterNumberName":"V-component_of_WINDS"},"data":[0,0,0,0,0,0,0,0,0,0,0,0,0,0,0,0,0,0,0,0,0,0,0,0,0,0,0,0,0,0,0,0,0,0,0,0,0,0,0,0,0,0,0,0,0,0,0,0,0,0,0,0,0,0,0,0,0,0,2.0785,2.0786,0,2.0854,2.0855,2.0856,2.0938,2.0939,2.094,2.0942,2.1007,2.1008,2.1008,0,0,0,0,0,0,0,0,0,0,0,0,0,2.0719,2.0719,2.0785,2.0786,2.0787,2.0854,2.0855,2.0856,2.0938,2.0939,2.0941,2.0942,2.1007,2.1008,2.1009,0,0,0,0,0,0,0,0,0,0,0,0,0,2.0763,2.072,2.0785,2.0836,2.0841,2.0854,2.0855,2.0856,2.0937,2.0939,2.0941,2.0943,2.1007,2.1008,2.1009,2.0976,0,0,2.1011,2.1012,0,0,0,0,0,0,0,0,2.0761,2.0766,2.0827,2.0832,2.0838,2.089,2.0856,2.0896,2.0937,2.09,2.0942,2.0944,2.0966,2.0971,2.0979,2.0979,2.0982,2.1011,2.1012,2.1012,2.1012,0,0,0,0,0,0,0,2.0758,2.0763,2.0812,2.0828,2.0835,2.0853,2.0862,2.0864,2.0922,2.0904,2.091,2.0917,2.097,2.0978,2.0981,2.0983,2.1011,2.1012,2.1013,2.1013,2.0958,2.0956,0,0,0,0,0,0,2.0747,2.076,2.081,2.0815,2.0804,2.0853,2.0863,2.0871,2.0922,2.0932,2.0916,2.0921,2.0976,2.098,2.0984,2.0948,2.1012,2.1013,2.1014,2.096,2.0957,2.0955,0,0,0,0,0,0,2.0746,2.0751,2.0807,2.0789,2.0798,2.0852,2.0861,2.0871,2.088,2.0931,2.0941,2.0914,2.0978,2.0983,2.0977,2.0951,2.1013,2.1014,2.0962,2.0959,2.0956,2.0875,0,0,0,0,0,0,2.0744,2.075,2.0739,2.0788,2.0798,2.0801,2.086,2.0871,2.0882,2.089,2.0932,2.0941,2.0979,2.0976,2.0978,2.0954,2.1015,2.0965,2.0961,2.0957,2.0881,2.087,2.0861,0,0,0,0,0,2.0741,2.0713,2.0738,2.0744,2.0786,2.0799,2.0805,2.0851,2.088,2.0868,2.0901,2.094,2.0954,2.0974,2.0978,2.0953,2.0966,2.0962,2.0958,2.0885,2.0872,2.0861,0,0,0,0,0,0,2.0657,2.072,2.0749,2.0736,2.0762,2.0813,2.08,2.0836,2.0852,2.0858,2.0914,2.0922,2.091,2.0932,2.0953,2.0924,2.0966,2.0962,2.091,2.0898,2.0888,2.0882,2.1016,0,0,0,0,0,2.0638,2.0645,2.0699,2.0682,2.0694,2.0744,2.0752,2.0785,2.0813,2.0824,2.0856,2.088,2.0891,2.0896,2.0908,2.0885,2.0894,2.087,2.086,2.0852,2.0847,2.0834,2.0824,2.0941,2.0941,2.0941,0,0,2.0597,2.0632,2.0633,2.0666,2.069,2.0694,2.0753,2.0755,2.0758,2.0824,2.0821,2.0845,2.0876,2.0861,2.0856,2.0879,2.0817,2.0846,2.0839,2.0839,2.0829,2.0818,2.0808,2.0938,2.0938,2.0939,0,0,2.0524,2.0552,2.0541,2.0564,2.06,2.0634,2.0631,2.0677,2.0696,2.0694,2.0744,2.0747,2.0764,2.0783,2.0795,2.073,2.0766,2.0733,2.068,2.0668,2.0659,2.0651,2.0625,2.0616,2.0728,2.0728,2.0728,0,2.0467,2.0477,2.053,2.0529,2.0541,2.0604,2.0592,2.0611,2.0648,2.0654,2.068,2.0702,2.0727,2.0717,2.0701,2.0709,2.0706,2.0727,2.0656,2.0649,2.0642,2.0618,2.0609,2.0724,2.0724,2.0725,2.0725,0,2.0405,2.0411,2.0398,2.0433,2.0445,2.0438,2.0488,2.0493,2.0526,2.0557,2.0553,2.0586,2.0605,2.0606,2.0638,2.06,2.0613,2.0646,2.0689,2.0625,2.0604,2.0596,2.0717,2.0719,2.072,2.0721,0,0,2.0279,2.0346,2.0339,2.0356,2.0401,2.0405,2.0401,2.0422,2.0424,2.0448,2.0444,2.0457,2.0488,2.0502,2.0536,2.0526,2.047,2.0561,2.0562,2.0541,2.0428,2.04,2.0389,2.0495,2.0493,2.0492,2.0425,0,2.0212,2.021,2.0258,2.0241,2.0246,2.0306,2.0302,2.0328,2.0357,2.0364,2.0396,2.0403,2.0445,2.0454,2.0446,2.0478,2.0447,2.0484,2.0489,2.0489,2.0477,2.0378,2.035,2.0284,2.0417,2.0415,2.0414,0,2.0134,2.0154,2.0138,2.0183,2.0187,2.0183,2.0205,2.0212,2.0242,2.0264,2.028,2.032,2.0317,2.036,2.0356,2.0379,2.0385,2.0401,2.0399,2.0399,2.0446,2.0373,2.0265,2.0253,2.0402,2.0403,2.0404,0,2.004,2.0064,2.0058,2.0071,2.0123,2.0119,2.014,2.0173,2.0182,2.0201,2.0207,2.0225,2.0234,2.0247,2.029,2.0318,2.028,2.0327,2.0295,2.0294,2.0282,2.0282,2.017,2.029,2.029,2.029,2.029,0,1.9959,1.9946,2.0017,2.0012,2.0,2.0054,2.004,2.0067,2.0095,2.0096,2.0149,2.0148,2.0207,2.0212,2.0246,2.0236,2.024,2.0256,2.0264,2.025,2.0247,2.0252,2.0256,2.0288,2.0288,2.0289,2.0289,0,1.9851,1.9899,1.9895,1.9946,1.9958,1.9946,1.9989,1.9986,2.0019,2.0019,2.0023,2.0073,2.0082,2.0128,2.0147,2.017,2.0147,2.0166,2.0136,2.0142,2.0107,2.0109,1.9992,1.9979,2.0109,2.0108,2.0107,0,1.9795,1.9787,1.9837,1.9842,1.9862,1.9869,1.9879,1.9933,1.9941,1.9975,1.9967,1.9981,1.9994,2.0006,2.0043,2.0058,2.0076,2.0034,2.0078,2.0063,2.0072,2.0071,2.007,2.0024,2.0022,2.0021,2.002,0,1.9689,1.9713,1.9726,1.9747,1.9758,1.9777,1.9798,1.9799,1.9859,1.9864,1.9875,1.9886,1.9906,1.9918,1.9939,1.996,1.9998,2.0006,1.9999,1.9982,1.9965,1.9971,2.0108,2.0008,2.0009,2.001,2.001,2.0011,1.9604,1.9599,1.9634,1.9646,1.9669,1.9688,1.9688,1.9721,1.9732,1.9753,1.9784,1.979,1.982,1.9853,1.987,1.9875,1.9897,1.9887,1.9884,1.9881,1.9872,1.9966,1.9879,1.9879,1.988,1.988,1.988,0,1.9499,1.9525,1.9536,1.9565,1.9575,1.9613,1.9639,1.9644,1.9649,1.9675,1.9687,1.9699,1.9711,1.975,1.9766,1.9761,1.9779,1.9763,1.9763,1.9766,1.9852,1.9856,1.9748,1.9748,1.9748,1.9748,1.9749,1.9749,1.9445,1.9438,1.9466,1.9471,1.9497,1.9504,1.9515,1.9532,1.9553,1.9564,1.9575,1.9601,1.9632,1.965,1.9662,1.9673,1.9675,1.9653,1.9669,1.9748,1.9761,1.9772,1.9776,1.9653,1.9653,1.9583,1.9582,1.9581]}]]